SCP
0 0 0 0 0 0 0 -0 -0 -0 -0 -0 -0 -0 -0 -0 -0 -0 -0 -0 -0 0 0 -0 0 -0 -0 0 0 0 -0 -0 -0 -0 -0 -0 -0 -0 -0 0 0 0 0 0 0 0 0 0 0
0 0 0 0 0 0 0 0 -0 -0 -0 -0 -0 -0 -0 0 -0 -0 -0 -0 -0 0 0 -0 -0 -0 0 0 0 -0 -0 -0 0 0 0 0 0 0 0 0 0 0 0 0 0 0 0 0 0
0 0 0 0 0 0 0 -0 -0 -0 -0 -0 -0 -0 -0 -0 -0 -0 -0 -0 0 0 0 0 -0 -0 -0 -0 -0 -0 -0 0 0 0 0 0 0 0 0 0 0 0 0 0 0 0 0 0 0
0 0 0 0 0 0 0 0 0 -0 -0 -0 -0 0 -0 -0 -0 -0 -0 -0 -0 -0 -0 -0 0 -0 0 0 0 0 0 0 0 0 0 0 0 0 0 0 0 0 0 0 0 0 0 0 0
0 0 0 0 0 0 0 -0 0 -0 0 0 -0 -0 -0 -0 -0 -0 0 -0 -0 0 -0 -0 0 -0 0 -0 -0 0 0 0 0 0 0 0 0 0 0 0 0 0 0 0 0 0 0 0 0
0 0 0 0 0 0 0 0 0 0 0 0 1 0 0 -0 0 0 0 0 -0 0 0 0 0 0 0 -0 -0 -0 -0 0 0 0 0 0 0 0 0 0 0 0 0 0 0 0 0 0 0
0 0 0 0 0 0 0 0 0 0 0 0 0 0 0 0 0 -0 0 0 0 0 0 0 0 0 0 0 0 0 -0 -0 -0 -0 0 0 0 0 0 0 0 0 0 0 0 0 0 0 0
0 0 0 0 0 0 0 0 0 0 0 0 0 0 0 0 0 -0 0 0 0 0 0 0 0 0 0 0 1 0 0 0 -0 0 0 0 0 1 0 0 0 0 0 0 0 0 0 0 0
0 0 0 0 0 0 0 0 0 0 0 0 0 0 0 0 0 0 0 0 0 0 0 0 0 0 0 0 1 1 1 0 0 1 0 0 1 1 1 0 0 0 0 0 0 0 0 0 0
0 0 0 0 0 0 0 0 0 0 0 0 0 0 0 0 0 0 0 0 0 0 0 0 0 0 0 0 0 0 0 1 1 1 1 1 1 1 0 0 0 1 0 0 0 1 0 1 0
0 0 0 0 -0 -0 0 0 0 0 0 0 0 0 0 0 0 0 0 0 0 0 0 0 0 0 0 0 0 0 0 0 0 0 0 0 0 0 0 0 0 1 1 1 1 1 1 1 1
0 0 0 -0 0 0 0 0 0 0 0 -0 0 0 0 0 0 0 -0 0 0 0 0 0 0 0 0 0 0 0 0 0 0 0 0 0 0 0 0 0 0 0 0 1 1 1 1 1 1
0 0 0 0 0 0 0 0 0 0 0 0 0 0 0 0 0 -0 -0 -0 -0 -0 0 0 0 0 0 0 0 0 0 0 0 0 0 0 0 0 0 0 0 0 0 0 0 0 1 1 1
0 0 0 0 0 0 0 0 0 0 0 0 0 0 0 0 -0 -0 -0 -0 -0 -0 -0 -0 -0 -0 -0 -0 -0 -0 0 0 0 0 0 0 0 0 0 0 0 0 0 0 0 0 0 0 0
0 0 0 0 0 0 0 0 0 0 0 0 0 0 0 0 0 0 0 0 -0 -0 -0 -0 -0 -0 -0 -0 -0 -0 -0 0 0 0 0 0 0 0 0 0 0 0 0 0 0 0 0 0 0
0 0 0 0 0 0 0 0 0 0 0 0 0 0 0 0 0 0 0 0 -0 0 0 0 0 -0 -0 -0 -0 -0 -0 -0 -0 0 0 0 0 0 0 0 0 0 0 0 0 0 0 1 1
0 0 0 0 0 0 0 0 0 0 -0 -0 -0 0 0 0 0 0 0 0 0 -0 0 0 0 0 -0 -0 -0 -0 -0 -0 -0 -0 0 0 0 0 0 0 0 0 0 0 0 1 1 1 1
0 0 0 0 0 0 0 0 0 -0 -0 -0 -0 0 0 0 0 0 0 0 0 0 0 0 0 0 0 0 -0 -0 -0 -0 -0 -0 -0 0 0 0 0 0 0 0 0 0 0 0 1 1 1
0 0 0 0 0 0 0 0 0 -0 0 -0 0 0 0 0 0 0 0 0 0 0 0 0 0 0 0 0 0 0 0 -0 -0 -0 -0 -0 -0 0 0 0 0 0 0 0 0 0 0 0 1
0 0 0 0 0 0 0 0 0 0 0 0 0 0 0 0 0 0 0 0 0 0 0 0 0 0 0 0 0 0 0 0 -0 -0 -0 -0 -0 0 0 0 0 0 0 0 0 0 0 0 0
0 0 0 0 0 0 0 0 0 0 0 0 0 0 0 0 0 0 0 0 0 0 0 0 0 0 0 0 0 0 0 0 0 0 0 -0 -0 0 0 0 0 0 0 0 0 0 0 0 0
0 0 0 0 0 0 0 0 0 0 0 0 0 0 0 0 0 0 0 0 0 0 0 0 0 0 0 0 0 0 0 0 0 0 0 0 0 0 0 0 0 0 0 0 0 0 0 0 0
0 0 0 0 0 0 0 0 0 0 0 0 0 0 0 0 0 0 0 0 0 0 0 0 0 0 0 0 0 0 0 0 0 0 0 0 0 -0 -0 0 0 0 0 0 0 0 0 0 0
0 0 0 0 0 0 0 0 0 0 0 0 0 0 0 0 0 0 0 0 0 0 0 0 0 0 0 0 0 0 0 0 0 0 0 0 0 0 0 -0 0 0 0 0 0 0 0 0 0
0 0 0 0 0 0 0 0 0 0 0 0 0 0 0 0 0 0 0 0 0 0 0 0 0 0 0 0 0 0 0 0 0 0 0 0 0 0 0 0 0 0 0 0 0 0 0 0 0
0 0 0 0 0 0 0 0 0 0 0 0 0 0 0 0 0 0 0 0 0 0 0 0 0 0 0 0 0 0 0 0 0 0 0 0 0 0 0 0 0 0 0 0 0 0 0 0 0
0 0 0 0 0 0 0 0 0 0 0 0 0 0 0 0 0 0 0 0 0 0 0 0 0 0 0 0 0 0 0 0 0 0 0 0 0 0 0 0 0 0 0 0 0 0 0 0 0
0 0 0 0 0 0 0 0 0 0 0 0 0 0 0 0 0 0 0 0 0 0 0 0 0 0 0 0 0 0 0 0 0 0 0 0 0 0 0 0 0 0 0 0 0 0 0 0 0
0 0 0 0 0 0 0 0 0 0 0 0 0 0 0 0 0 0 0 0 0 0 0 0 0 0 0 0 0 0 0 0 0 0 0 0 0 0 0 0 0 0 0 0 0 0 0 0 0
0 0 0 0 0 0 0 0 0 0 0 0 0 0 0 0 0 0 0 0 0 0 0 0 0 0 0 0 0 0 0 0 0 0 0 0 0 0 0 0 0 0 0 0 0 0 0 0 0
Wind_Speed_500mb
17 13 17 6 7 10 8 3 5 6 4 3 22 9 11 10 5 8 22 41 31 23 21 19 17 16 16 16 16 17 20 21 20 19 18 19 21 24 25 23 21 18 16 15 14 14 13 12 11
13 10 10 6 10 8 11 7 6 9 5 32 29 20 9 4 7 13 30 27 11 20 25 15 13 14 17 20 19 16 16 19 19 17 16 16 17 19 21 21 19 19 17 16 15 15 13 13 13
12 12 8 9 7 3 7 7 8 13 43 5 8 13 9 4 20 26 28 11 7 6 16 13 10 10 14 22 24 21 18 16 17 16 14 13 13 14 17 19 19 17 18 18 18 17 16 16 16
13 7 10 9 4 10 9 7 26 12 11 14 29 16 14 21 26 29 32 18 14 22 16 7 5 5 8 14 19 20 18 15 13 12 12 12 12 12 13 15 16 16 17 19 19 20 20 20 21
12 8 9 5 8 11 12 2 63 14 12 27 23 8 12 37 35 28 14 13 17 18 15 17 13 8 8 10 13 16 16 15 13 12 13 14 15 16 16 16 17 18 19 20 21 22 22 23 24
8 6 10 5 10 10 13 19 42 34 48 48 32 20 10 28 29 23 23 26 25 18 10 7 4 6 5 7 10 13 14 15 15 14 15 18 21 23 23 23 23 24 24 25 25 25 26 26 27
11 8 6 4 7 13 6 17 9 31 38 28 29 10 13 22 14 9 30 25 13 11 9 8 9 8 6 7 7 7 9 13 14 14 17 21 26 29 32 32 31 31 31 32 32 31 31 31 31
5 9 5 4 6 6 16 10 33 22 12 11 11 8 7 14 22 13 22 23 31 8 10 9 9 6 5 7 6 5 6 9 10 12 17 23 29 33 36 38 39 39 38 38 38 37 36 37 36
3 9 3 6 6 7 17 41 62 52 72 60 38 40 32 52 39 36 36 25 17 18 18 13 7 6 3 12 12 10 11 13 14 15 24 30 33 35 37 41 41 42 44 44 45 44 43 42 42
9 7 11 9 2 7 18 36 25 32 58 52 61 68 73 55 53 51 44 40 31 24 20 12 7 5 7 4 9 16 19 17 21 24 27 27 30 35 39 41 45 46 48 49 50 49 49 49 49
8 10 9 8 12 17 26 26 17 52 17 50 64 70 63 54 41 36 32 27 25 21 14 14 14 12 8 4 8 15 20 24 27 32 31 28 30 33 38 41 42 43 46 51 49 47 44 43 41
4 14 14 10 9 12 13 26 12 41 42 64 66 64 56 44 38 34 34 33 24 17 17 17 19 22 22 17 14 16 23 30 34 36 39 37 35 36 35 43 47 46 46 47 48 47 43 42 43
8 5 17 17 16 30 44 22 30 49 52 55 51 43 34 29 28 28 31 36 34 22 18 24 27 31 39 34 29 25 23 25 32 39 40 39 45 45 45 46 49 51 53 54 55 56 52 51 48
8 2 12 15 15 21 22 29 21 38 51 48 43 37 32 29 29 26 22 28 34 29 22 24 30 36 44 39 33 37 39 31 29 33 39 43 44 47 49 50 49 50 51 52 65 66 64 63 60
4 4 9 5 11 9 53 7 11 62 54 50 42 38 36 35 30 22 20 20 22 26 26 23 30 39 42 47 42 50 53 45 34 33 35 38 40 43 47 52 52 50 54 57 59 62 57 56 58
8 10 8 8 13 9 17 13 7 59 58 51 45 41 37 31 25 18 15 16 20 13 10 19 29 36 41 43 45 47 55 60 47 37 36 41 45 46 45 46 49 50 54 60 63 58 59 60 62
13 2 5 13 25 9 7 10 10 56 51 52 49 45 38 32 24 14 10 8 9 7 11 18 29 35 40 45 50 53 59 59 60 52 45 44 43 47 51 49 48 51 56 55 53 62 63 67 66
6 3 8 10 8 10 9 9 5 38 49 52 51 47 41 33 18 7 6 2 4 6 11 12 22 32 36 37 39 46 55 55 59 61 56 58 56 51 50 53 55 55 55 53 52 54 58 65 73
5 3 5 8 3 7 11 7 15 37 32 36 47 47 40 28 13 9 6 6 9 10 12 15 25 27 28 29 34 42 47 52 54 58 61 68 68 60 57 56 58 61 63 63 53 51 57 67 65
9 4 8 4 12 6 6 8 7 2 16 32 54 50 40 28 27 17 11 13 9 13 12 18 26 27 26 30 36 39 42 47 49 54 63 72 78 80 76 70 67 64 66 68 65 58 56 64 65
7 11 3 0 10 7 8 14 8 9 8 22 41 44 34 30 26 13 9 5 11 14 15 24 24 25 26 31 36 39 44 50 57 61 66 71 77 82 85 83 81 73 68 66 63 62 58 57 62
7 6 6 5 9 5 7 9 8 10 9 6 43 32 18 13 11 6 5 11 15 15 23 23 24 21 25 33 38 42 49 57 62 68 75 81 84 90 89 86 84 82 73 70 65 60 58 56 51
11 4 3 4 7 4 3 6 10 6 5 2 5 15 10 11 12 5 10 11 10 20 22 24 22 21 28 31 38 48 56 64 71 80 91 99 104 103 98 92 89 83 75 71 68 69 66 58 54
8 8 13 9 6 6 6 7 9 7 12 6 8 11 6 7 5 9 9 11 20 24 23 19 19 23 25 35 45 57 70 82 91 96 102 108 112 113 109 101 89 83 74 68 67 68 71 69 64
13 12 6 8 8 11 5 4 13 10 9 11 11 6 6 2 8 10 12 17 17 13 20 21 18 25 35 47 61 74 83 89 97 106 111 112 112 109 104 91 79 73 67 64 66 68 67 65 66
7 14 10 9 5 9 10 5 9 6 14 13 19 13 3 3 3 9 10 6 9 16 18 21 30 41 53 67 79 87 92 101 108 109 101 97 92 83 81 67 61 61 62 62 61 60 57 49 58
6 5 7 14 6 4 6 8 12 3 7 15 20 13 9 3 10 9 6 7 11 13 21 31 43 58 69 82 90 98 104 105 102 92 85 70 64 68 65 71 63 64 65 63 53 51 56 60 67
8 14 5 6 5 7 8 7 10 13 18 17 16 20 4 5 11 11 3 6 11 20 32 45 58 69 83 94 101 103 102 94 85 77 66 69 68 67 67 65 55 54 58 56 48 51 53 56 56
4 2 11 9 9 10 3 11 13 21 22 21 32 19 5 2 10 2 3 8 20 33 44 55 70 87 96 101 101 98 90 81 74 70 66 66 66 64 63 59 56 55 53 50 50 51 51 51 47
7 14 12 10 10 5 7 12 4 18 20 19 17 4 6 12 3 2 9 19 31 42 55 71 84 93 97 98 93 84 76 72 67 63 63 62 63 60 58 55 55 53 52 50 48 49 45 46 42
Wind_Direction_500mb
350 355 344 359 47 60 300 332 296 108 195 142 142 145 149 48 171 192 151 160 143 166 171 164 166 163 176 174 164 154 157 155 152 151 151 154 158 162 168 173 176 177 175 174 183 190 190 191 197
1 8 6 48 75 44 295 303 26 216 179 124 129 125 86 45 49 80 151 169 112 160 168 175 174 171 184 190 184 172 163 161 158 157 156 159 164 170 176 185 191 193 195 200 209 208 203 206 218
25 19 34 83 105 181 244 115 109 126 132 132 97 69 67 360 100 121 153 133 184 119 189 172 183 188 198 200 195 188 180 174 171 171 170 173 181 185 188 192 199 203 206 211 215 217 219 218 221
18 46 62 78 263 258 222 151 168 164 255 124 111 66 66 114 130 141 158 153 119 153 173 159 188 206 222 219 209 202 199 194 190 196 197 201 210 213 215 219 219 223 226 227 228 229 229 226 226
35 55 52 34 285 278 287 18 155 165 157 125 117 93 81 111 107 77 123 170 143 134 164 178 181 212 210 205 211 211 215 219 220 225 233 236 239 246 249 247 248 247 247 247 246 244 243 240 236
57 67 55 328 299 292 318 66 113 102 96 99 100 106 99 110 96 114 88 117 133 141 161 176 191 214 188 197 204 207 212 224 229 237 249 256 259 259 259 260 261 260 257 255 253 256 257 256 254
101 78 187 258 283 342 37 63 76 105 95 65 130 85 124 115 93 107 113 138 87 114 145 168 190 205 208 208 211 217 215 220 230 244 257 262 263 264 266 265 264 264 265 265 263 259 258 259 259
81 89 13 308 318 325 2 71 102 69 34 114 125 68 99 148 91 142 121 143 131 128 137 168 240 212 252 225 214 255 268 264 256 266 275 278 273 269 267 269 271 272 270 269 268 267 267 267 266
135 60 0 302 20 342 62 88 76 86 87 76 88 95 123 118 110 114 106 119 126 119 134 119 145 55 343 233 210 230 255 265 266 276 294 290 288 280 274 275 275 274 273 271 268 264 263 262 264
96 97 229 204 265 95 91 112 119 96 90 87 94 106 123 120 114 110 104 99 98 90 89 97 71 28 13 2 215 231 235 248 254 264 285 285 288 287 283 279 277 276 274 270 268 268 265 262 262
153 185 202 270 120 141 105 81 111 116 101 131 127 125 129 132 125 111 95 76 61 55 50 46 38 26 5 305 261 256 257 251 257 264 266 265 279 281 284 283 287 286 285 277 269 265 266 269 271
201 231 186 211 156 98 113 139 86 132 149 139 135 138 136 125 109 95 84 71 60 51 46 31 16 3 358 348 325 298 276 265 261 264 262 260 265 268 272 279 283 285 287 283 280 272 269 268 269
193 231 189 177 151 121 125 116 132 141 141 144 139 138 129 116 102 82 66 56 51 51 46 40 28 18 7 348 339 328 312 291 279 268 269 270 266 266 267 269 276 284 284 280 281 276 272 274 267
321 7 126 170 181 134 119 133 123 170 154 153 156 149 142 130 119 106 73 49 44 43 43 30 22 15 8 6 358 355 347 324 294 280 272 270 269 270 269 270 273 274 276 274 275 274 274 275 271
310 40 358 162 189 126 136 261 184 166 166 161 164 156 149 137 132 120 101 80 61 35 25 19 10 8 8 10 9 10 10 356 328 296 286 280 279 277 276 274 274 273 265 266 271 273 268 273 272
44 49 19 284 152 158 161 253 172 170 168 166 168 165 156 148 143 124 98 72 43 29 28 14 1 2 2 1 4 0 4 8 0 339 309 293 288 286 284 284 283 281 274 270 269 265 268 269 274
7 237 250 307 199 135 119 242 203 181 179 171 178 172 164 159 158 136 106 84 41 17 2 360 353 354 354 350 354 352 354 356 358 358 353 341 320 301 294 291 288 284 282 284 281 270 266 266 268
232 353 280 236 256 153 147 224 241 191 192 184 186 179 175 174 165 115 96 80 316 341 334 325 344 347 340 337 339 340 344 345 347 348 347 344 340 326 313 297 288 286 285 282 283 281 271 262 261
170 222 272 293 63 113 177 200 227 204 204 192 189 185 183 180 179 175 187 243 264 309 306 316 340 328 317 316 321 327 332 334 337 338 337 335 335 333 324 313 301 289 285 284 283 283 280 268 262
59 26 315 316 7 88 150 258 340 267 242 206 188 188 185 192 207 210 229 250 270 275 295 324 328 314 303 302 312 319 323 327 327 326 327 328 329 329 326 318 312 301 293 284 280 278 278 274 268
33 120 9 64 345 32 61 334 359 320 324 182 191 180 186 211 215 218 229 253 271 278 303 316 315 303 294 300 312 315 318 318 318 319 320 321 321 320 319 316 311 304 292 288 282 278 275 276 270
162 210 138 74 52 241 48 265 303 328 353 96 156 171 184 177 181 204 220 280 280 289 308 312 304 283 288 308 309 309 311 313 315 315 314 312 311 310 309 308 307 303 293 282 282 277 270 268 271
203 171 37 115 126 93 275 81 266 348 17 316 175 162 115 125 128 214 290 296 291 294 295 308 302 280 300 298 304 310 311 312 310 308 306 306 308 308 310 309 306 299 289 282 275 271 266 259 264
104 77 44 48 64 11 258 124 284 193 205 228 231 191 109 127 231 253 252 271 300 303 314 332 317 292 296 310 315 313 312 311 310 311 311 311 310 309 307 306 302 294 284 278 274 272 268 260 255
72 58 351 359 9 222 274 103 241 276 218 197 187 179 160 265 273 279 231 295 295 317 333 325 301 308 318 317 314 313 314 313 313 314 313 311 309 306 304 303 296 288 280 277 274 272 270 264 255
163 146 150 196 211 270 315 260 259 297 190 202 174 175 207 259 281 204 289 286 322 323 314 311 316 321 321 319 319 319 317 316 315 315 312 308 308 306 306 298 286 282 282 278 279 272 269 257 247
183 144 172 105 15 45 269 301 327 279 261 202 203 207 210 54 184 235 231 304 311 315 324 323 324 324 323 324 322 320 320 318 316 315 312 314 305 296 290 290 278 279 281 284 280 274 274 262 249
143 155 76 17 150 242 288 268 228 208 230 236 234 221 271 163 180 178 287 319 337 331 326 328 327 326 326 325 324 321 320 320 320 321 314 315 313 308 302 299 290 282 280 280 275 271 269 271 263
57 134 56 116 138 169 210 258 214 204 215 218 228 223 189 146 164 244 353 334 326 324 326 328 329 329 326 325 323 322 326 329 326 325 321 316 312 310 305 299 292 286 279 274 271 268 267 267 267
185 201 145 132 223 219 155 273 276 227 220 232 213 153 122 146 207 352 317 321 325 329 333 332 327 326 326 325 327 332 332 332 330 330 329 326 321 315 307 300 294 287 279 275 269 265 261 259 254
Wind_Speed_850mb
17 13 17 6 7 10 8 3 5 6 4 3 22 9 11 10 5 8 22 41 31 23 21 19 17 16 16 16 16 17 20 21 20 19 18 19 21 24 25 23 21 18 16 15 14 14 13 12 11
13 10 10 6 10 8 11 7 6 9 5 32 29 20 9 4 7 13 30 27 11 20 25 15 13 14 17 20 19 16 16 19 19 17 16 16 17 19 21 21 19 19 17 16 15 15 13 13 13
12 12 8 9 7 3 7 7 8 13 43 5 8 13 9 4 20 26 28 11 7 6 16 13 10 10 14 22 24 21 18 16 17 16 14 13 13 14 17 19 19 17 18 18 18 17 16 16 16
13 7 10 9 4 10 9 7 26 12 11 14 29 16 14 21 26 29 32 18 14 22 16 7 5 5 8 14 19 20 18 15 13 12 12 12 12 12 13 15 16 16 17 19 19 20 20 20 21
12 8 9 5 8 11 12 2 63 14 12 27 23 8 12 37 35 28 14 13 17 18 15 17 13 8 8 10 13 16 16 15 13 12 13 14 15 16 16 16 17 18 19 20 21 22 22 23 24
8 6 10 5 10 10 13 19 42 34 48 48 32 20 10 28 29 23 23 26 25 18 10 7 4 6 5 7 10 13 14 15 15 14 15 18 21 23 23 23 23 24 24 25 25 25 26 26 27
11 8 6 4 7 13 6 17 9 31 38 28 29 10 13 22 14 9 30 25 13 11 9 8 9 8 6 7 7 7 9 13 14 14 17 21 26 29 32 32 31 31 31 32 32 31 31 31 31
5 9 5 4 6 6 16 10 33 22 12 11 11 8 7 14 22 13 22 23 31 8 10 9 9 6 5 7 6 5 6 9 10 12 17 23 29 33 36 38 39 39 38 38 38 37 36 37 36
3 9 3 6 6 7 17 41 62 52 72 60 38 40 32 52 39 36 36 25 17 18 18 13 7 6 3 12 12 10 11 13 14 15 24 30 33 35 37 41 41 42 44 44 45 44 43 42 42
9 7 11 9 2 7 18 36 25 32 58 52 61 68 73 55 53 51 44 40 31 24 20 12 7 5 7 4 9 16 19 17 21 24 27 27 30 35 39 41 45 46 48 49 50 49 49 49 49
8 10 9 8 12 17 26 26 17 52 17 50 64 70 63 54 41 36 32 27 25 21 14 14 14 12 8 4 8 15 20 24 27 32 31 28 30 33 38 41 42 43 46 51 49 47 44 43 41
4 14 14 10 9 12 13 26 12 41 42 64 66 64 56 44 38 34 34 33 24 17 17 17 19 22 22 17 14 16 23 30 34 36 39 37 35 36 35 43 47 46 46 47 48 47 43 42 43
8 5 17 17 16 30 44 22 30 49 52 55 51 43 34 29 28 28 31 36 34 22 18 24 27 31 39 34 29 25 23 25 32 39 40 39 45 45 45 46 49 51 53 54 55 56 52 51 48
8 2 12 15 15 21 22 29 21 38 51 48 43 37 32 29 29 26 22 28 34 29 22 24 30 36 44 39 33 37 39 31 29 33 39 43 44 47 49 50 49 50 51 52 65 66 64 63 60
4 4 9 5 11 9 53 7 11 62 54 50 42 38 36 35 30 22 20 20 22 26 26 23 30 39 42 47 42 50 53 45 34 33 35 38 40 43 47 52 52 50 54 57 59 62 57 56 58
8 10 8 8 13 9 17 13 7 59 58 51 45 41 37 31 25 18 15 16 20 13 10 19 29 36 41 43 45 47 55 60 47 37 36 41 45 46 45 46 49 50 54 60 63 58 59 60 62
13 2 5 13 25 9 7 10 10 56 51 52 49 45 38 32 24 14 10 8 9 7 11 18 29 35 40 45 50 53 59 59 60 52 45 44 43 47 51 49 48 51 56 55 53 62 63 67 66
6 3 8 10 8 10 9 9 5 38 49 52 51 47 41 33 18 7 6 2 4 6 11 12 22 32 36 37 39 46 55 55 59 61 56 58 56 51 50 53 55 55 55 53 52 54 58 65 73
5 3 5 8 3 7 11 7 15 37 32 36 47 47 40 28 13 9 6 6 9 10 12 15 25 27 28 29 34 42 47 52 54 58 61 68 68 60 57 56 58 61 63 63 53 51 57 67 65
9 4 8 4 12 6 6 8 7 2 16 32 54 50 40 28 27 17 11 13 9 13 12 18 26 27 26 30 36 39 42 47 49 54 63 72 78 80 76 70 67 64 66 68 65 58 56 64 65
7 11 3 0 10 7 8 14 8 9 8 22 41 44 34 30 26 13 9 5 11 14 15 24 24 25 26 31 36 39 44 50 57 61 66 71 77 82 85 83 81 73 68 66 63 62 58 57 62
7 6 6 5 9 5 7 9 8 10 9 6 43 32 18 13 11 6 5 11 15 15 23 23 24 21 25 33 38 42 49 57 62 68 75 81 84 90 89 86 84 82 73 70 65 60 58 56 51
11 4 3 4 7 4 3 6 10 6 5 2 5 15 10 11 12 5 10 11 10 20 22 24 22 21 28 31 38 48 56 64 71 80 91 99 104 103 98 92 89 83 75 71 68 69 66 58 54
8 8 13 9 6 6 6 7 9 7 12 6 8 11 6 7 5 9 9 11 20 24 23 19 19 23 25 35 45 57 70 82 91 96 102 108 112 113 109 101 89 83 74 68 67 68 71 69 64
13 12 6 8 8 11 5 4 13 10 9 11 11 6 6 2 8 10 12 17 17 13 20 21 18 25 35 47 61 74 83 89 97 106 111 112 112 109 104 91 79 73 67 64 66 68 67 65 66
7 14 10 9 5 9 10 5 9 6 14 13 19 13 3 3 3 9 10 6 9 16 18 21 30 41 53 67 79 87 92 101 108 109 101 97 92 83 81 67 61 61 62 62 61 60 57 49 58
6 5 7 14 6 4 6 8 12 3 7 15 20 13 9 3 10 9 6 7 11 13 21 31 43 58 69 82 90 98 104 105 102 92 85 70 64 68 65 71 63 64 65 63 53 51 56 60 67
8 14 5 6 5 7 8 7 10 13 18 17 16 20 4 5 11 11 3 6 11 20 32 45 58 69 83 94 101 103 102 94 85 77 66 69 68 67 67 65 55 54 58 56 48 51 53 56 56
4 2 11 9 9 10 3 11 13 21 22 21 32 19 5 2 10 2 3 8 20 33 44 55 70 87 96 101 101 98 90 81 74 70 66 66 66 64 63 59 56 55 53 50 50 51 51 51 47
7 14 12 10 10 5 7 12 4 18 20 19 17 4 6 12 3 2 9 19 31 42 55 71 84 93 97 98 93 84 76 72 67 63 63 62 63 60 58 55 55 53 52 50 48 49 45 46 42
Wind_Direction_850mb
350 355 344 359 47 60 300 332 296 108 195 142 142 145 149 48 171 192 151 160 143 166 171 164 166 163 176 174 164 154 157 155 152 151 151 154 158 162 168 173 176 177 175 174 183 190 190 191 197
1 8 6 48 75 44 295 303 26 216 179 124 129 125 86 45 49 80 151 169 112 160 168 175 174 171 184 190 184 172 163 161 158 157 156 159 164 170 176 185 191 193 195 200 209 208 203 206 218
25 19 34 83 105 181 244 115 109 126 132 132 97 69 67 360 100 121 153 133 184 119 189 172 183 188 198 200 195 188 180 174 171 171 170 173 181 185 188 192 199 203 206 211 215 217 219 218 221
18 46 62 78 263 258 222 151 168 164 255 124 111 66 66 114 130 141 158 153 119 153 173 159 188 206 222 219 209 202 199 194 190 196 197 201 210 213 215 219 219 223 226 227 228 229 229 226 226
35 55 52 34 285 278 287 18 155 165 157 125 117 93 81 111 107 77 123 170 143 134 164 178 181 212 210 205 211 211 215 219 220 225 233 236 239 246 249 247 248 247 247 247 246 244 243 240 236
57 67 55 328 299 292 318 66 113 102 96 99 100 106 99 110 96 114 88 117 133 141 161 176 191 214 188 197 204 207 212 224 229 237 249 256 259 259 259 260 261 260 257 255 253 256 257 256 254
101 78 187 258 283 342 37 63 76 105 95 65 130 85 124 115 93 107 113 138 87 114 145 168 190 205 208 208 211 217 215 220 230 244 257 262 263 264 266 265 264 264 265 265 263 259 258 259 259
81 89 13 308 318 325 2 71 102 69 34 114 125 68 99 148 91 142 121 143 131 128 137 168 240 212 252 225 214 255 268 264 256 266 275 278 273 269 267 269 271 272 270 269 268 267 267 267 266
135 60 0 302 20 342 62 88 76 86 87 76 88 95 123 118 110 114 106 119 126 119 134 119 145 55 343 233 210 230 255 265 266 276 294 290 288 280 274 275 275 274 273 271 268 264 263 262 264
96 97 229 204 265 95 91 112 119 96 90 87 94 106 123 120 114 110 104 99 98 90 89 97 71 28 13 2 215 231 235 248 254 264 285 285 288 287 283 279 277 276 274 270 268 268 265 262 262
153 185 202 270 120 141 105 81 111 116 101 131 127 125 129 132 125 111 95 76 61 55 50 46 38 26 5 305 261 256 257 251 257 264 266 265 279 281 284 283 287 286 285 277 269 265 266 269 271
201 231 186 211 156 98 113 139 86 132 149 139 135 138 136 125 109 95 84 71 60 51 46 31 16 3 358 348 325 298 276 265 261 264 262 260 265 268 272 279 283 285 287 283 280 272 269 268 269
193 231 189 177 151 121 125 116 132 141 141 144 139 138 129 116 102 82 66 56 51 51 46 40 28 18 7 348 339 328 312 291 279 268 269 270 266 266 267 269 276 284 284 280 281 276 272 274 267
321 7 126 170 181 134 119 133 123 170 154 153 156 149 142 130 119 106 73 49 44 43 43 30 22 15 8 6 358 355 347 324 294 280 272 270 269 270 269 270 273 274 276 274 275 274 274 275 271
310 40 358 162 189 126 136 261 184 166 166 161 164 156 149 137 132 120 101 80 61 35 25 19 10 8 8 10 9 10 10 356 328 296 286 280 279 277 276 274 274 273 265 266 271 273 268 273 272
44 49 19 284 152 158 161 253 172 170 168 166 168 165 156 148 143 124 98 72 43 29 28 14 1 2 2 1 4 0 4 8 0 339 309 293 288 286 284 284 283 281 274 270 269 265 268 269 274
7 237 250 307 199 135 119 242 203 181 179 171 178 172 164 159 158 136 106 84 41 17 2 360 353 354 354 350 354 352 354 356 358 358 353 341 320 301 294 291 288 284 282 284 281 270 266 266 268
232 353 280 236 256 153 147 224 241 191 192 184 186 179 175 174 165 115 96 80 316 341 334 325 344 347 340 337 339 340 344 345 347 348 347 344 340 326 313 297 288 286 285 282 283 281 271 262 261
170 222 272 293 63 113 177 200 227 204 204 192 189 185 183 180 179 175 187 243 264 309 306 316 340 328 317 316 321 327 332 334 337 338 337 335 335 333 324 313 301 289 285 284 283 283 280 268 262
59 26 315 316 7 88 150 258 340 267 242 206 188 188 185 192 207 210 229 250 270 275 295 324 328 314 303 302 312 319 323 327 327 326 327 328 329 329 326 318 312 301 293 284 280 278 278 274 268
33 120 9 64 345 32 61 334 359 320 324 182 191 180 186 211 215 218 229 253 271 278 303 316 315 303 294 300 312 315 318 318 318 319 320 321 321 320 319 316 311 304 292 288 282 278 275 276 270
162 210 138 74 52 241 48 265 303 328 353 96 156 171 184 177 181 204 220 280 280 289 308 312 304 283 288 308 309 309 311 313 315 315 314 312 311 310 309 308 307 303 293 282 282 277 270 268 271
203 171 37 115 126 93 275 81 266 348 17 316 175 162 115 125 128 214 290 296 291 294 295 308 302 280 300 298 304 310 311 312 310 308 306 306 308 308 310 309 306 299 289 282 275 271 266 259 264
104 77 44 48 64 11 258 124 284 193 205 228 231 191 109 127 231 253 252 271 300 303 314 332 317 292 296 310 315 313 312 311 310 311 311 311 310 309 307 306 302 294 284 278 274 272 268 260 255
72 58 351 359 9 222 274 103 241 276 218 197 187 179 160 265 273 279 231 295 295 317 333 325 301 308 318 317 314 313 314 313 313 314 313 311 309 306 304 303 296 288 280 277 274 272 270 264 255
163 146 150 196 211 270 315 260 259 297 190 202 174 175 207 259 281 204 289 286 322 323 314 311 316 321 321 319 319 319 317 316 315 315 312 308 308 306 306 298 286 282 282 278 279 272 269 257 247
183 144 172 105 15 45 269 301 327 279 261 202 203 207 210 54 184 235 231 304 311 315 324 323 324 324 323 324 322 320 320 318 316 315 312 314 305 296 290 290 278 279 281 284 280 274 274 262 249
143 155 76 17 150 242 288 268 228 208 230 236 234 221 271 163 180 178 287 319 337 331 326 328 327 326 326 325 324 321 320 320 320 321 314 315 313 308 302 299 290 282 280 280 275 271 269 271 263
57 134 56 116 138 169 210 258 214 204 215 218 228 223 189 146 164 244 353 334 326 324 326 328 329 329 326 325 323 322 326 329 326 325 321 316 312 310 305 299 292 286 279 274 271 268 267 267 267
185 201 145 132 223 219 155 273 276 227 220 232 213 153 122 146 207 352 317 321 325 329 333 332 327 326 326 325 327 332 332 332 330 330 329 326 321 315 307 300 294 287 279 275 269 265 261 259 254